Date,Time,Airtemp,Rain
ADT,ADT,DegC,.01/in
1/1/2007,0:00,-33.7,
1/1/2007,1:00,-34.2,
1/1/2007,2:00,-35.0,
1/1/2007,3:00,-37.2,
1/1/2007,4:00,-38.1,
1/1/2007,5:00,-39.8,
1/1/2007,6:00,-40.7,
1/1/2007,7:00,-40.5,
1/1/2007,8:00,-41.6,
1/1/2007,9:00,-42.2,
1/1/2007,10:00,-41.9,
1/1/2007,11:00,-41.9,
1/1/2007,12:00,-42.1,
1/1/2007,13:00,-42.2,
1/1/2007,14:00,-42.8
1/1/2007,15:00,-42.6
1/1/2007,16:00,-42.9
1/1/2007,17:00,-42.7
1/1/2007,18:00,-43.6
1/1/2007,19:00,-43.8
1/1/2007,20:00,-43.9
1/1/2007,21:00,-44.0
1/1/2007,22:00,-44.1
1/1/2007,23:00,-43.6
1/2/2007,0:00,-44.0
1/2/2007,1:00,-44.0
1/2/2007,2:00,-44.1
1/2/2007,3:00,-43.5
1/2/2007,4:00,-42.5
1/2/2007,5:00,-43.3
1/2/2007,6:00,-43.8
1/2/2007,7:00,-43.5
1/2/2007,8:00,-44.1
1/2/2007,9:00,-44.2
1/2/2007,10:00,-43.7
1/2/2007,11:00,-44.3
1/2/2007,12:00,-44.7
1/2/2007,13:00,-44.6
1/2/2007,14:00,-45.3
1/2/2007,15:00,-45.2
1/2/2007,16:00,-45.3
1/2/2007,17:00,-45.6
1/2/2007,18:00,-45.2
1/2/2007,19:00,-44.8
1/2/2007,20:00,-43.8
1/2/2007,21:00,-43.9
1/2/2007,22:00,-42.9
1/2/2007,23:00,-42.4
1/3/2007,0:00,-42.6
1/3/2007,1:00,-42.7
1/3/2007,2:00,-41.7
1/3/2007,3:00,-42.2
1/3/2007,4:00,-42.3
1/3/2007,5:00,-42.3
1/3/2007,6:00,-43.4
1/3/2007,7:00,-43.6
1/3/2007,8:00,-44.1
1/3/2007,9:00,-43.9
1/3/2007,10:00,-43.8
1/3/2007,11:00,-42.8
1/3/2007,12:00,-43.3
1/3/2007,13:00,-43.4
1/3/2007,14:00,-43.1
1/3/2007,15:00,-42.6
1/3/2007,16:00,-42.2
1/3/2007,17:00,-41.6
1/3/2007,18:00,-40.8
1/3/2007,19:00,-39.6
1/3/2007,20:00,-38.4
1/3/2007,21:00,-37.7
1/3/2007,22:00,-37.0
1/3/2007,23:00,-36.4
1/4/2007,0:00,-35.4
1/4/2007,1:00,-34.9
1/4/2007,2:00,-34.6
1/4/2007,3:00,-34.8
1/4/2007,4:00,-34.8
1/4/2007,5:00,-34.2
1/4/2007,6:00,-34.1
1/4/2007,7:00,-34.2
1/4/2007,8:00,-34.3
1/4/2007,9:00,-34.4
1/4/2007,10:00,-34.0
1/4/2007,11:00,-33.7
1/4/2007,12:00,-33.3
1/4/2007,13:00,-33.2
1/4/2007,14:00,-32.9
1/4/2007,15:00,-32.4
1/4/2007,16:00,-32.2
1/4/2007,17:00,-32.9
1/4/2007,18:00,-32.9
1/4/2007,19:00,-32.8
1/4/2007,20:00,-32.5
1/4/2007,21:00,-32.1
1/4/2007,22:00,-31.3
1/4/2007,23:00,-30.4
1/5/2007,0:00,-30.0
1/5/2007,1:00,-29.8
1/5/2007,2:00,-29.7
1/5/2007,3:00,-29.4
1/5/2007,4:00,-29.2
1/5/2007,5:00,-28.8
1/5/2007,6:00,-28.5
1/5/2007,7:00,-28.9
1/5/2007,8:00,-28.8
1/5/2007,9:00,-28.9
1/5/2007,10:00,-29.6
1/5/2007,11:00,-30.5
1/5/2007,12:00,-29.9
1/5/2007,13:00,-30.4
1/5/2007,14:00,-30.8
1/5/2007,15:00,-31.3
1/5/2007,16:00,-31.7
1/5/2007,17:00,-31.7
1/5/2007,18:00,-32.7
1/5/2007,19:00,-34.3
1/5/2007,20:00,-35.3
1/5/2007,21:00,-35.8
1/5/2007,22:00,-36.5
1/5/2007,23:00,-36.7
1/6/2007,0:00,-37.1
1/6/2007,1:00,-38.9
1/6/2007,2:00,-39.4
1/6/2007,3:00,-41.1
1/6/2007,4:00,-40.5
1/6/2007,5:00,-40.8
1/6/2007,6:00,-41.8
1/6/2007,7:00,-41.7
1/6/2007,8:00,-42.9
1/6/2007,9:00,-42.3
1/6/2007,10:00,-41.7
1/6/2007,11:00,-41.9
1/6/2007,12:00,-42.2
1/6/2007,13:00,-42.7
1/6/2007,14:00,-42.2
1/6/2007,15:00,-42.6
1/6/2007,16:00,-42.3
1/6/2007,17:00,-43.1
1/6/2007,18:00,-42.0
1/6/2007,19:00,-43.0
1/6/2007,20:00,-43.0
1/6/2007,21:00,-42.9
1/6/2007,22:00,-41.2
1/6/2007,23:00,-40.9
1/7/2007,0:00,-40.1
1/7/2007,1:00,-37.5
1/7/2007,2:00,-36.6
1/7/2007,3:00,-33.7
1/7/2007,4:00,-33.4
1/7/2007,5:00,-32.6
1/7/2007,6:00,-32.0
1/7/2007,7:00,-31.8
1/7/2007,8:00,-31.9
1/7/2007,9:00,-31.8
1/7/2007,10:00,-31.5
1/7/2007,11:00,-32.3
1/7/2007,12:00,-33.0
1/7/2007,13:00,-33.7
1/7/2007,14:00,-34.0
1/7/2007,15:00,-33.8
1/7/2007,16:00,-32.7
1/7/2007,17:00,-32.2
1/7/2007,18:00,-32.8
1/7/2007,19:00,-32.9
1/7/2007,20:00,-34.2
1/7/2007,21:00,-32.9
1/7/2007,22:00,-32.9
1/7/2007,23:00,-32.5
1/8/2007,0:00,-32.2
1/8/2007,1:00,-31.9
1/8/2007,2:00,-31.6
1/8/2007,3:00,-30.8
1/8/2007,4:00,-29.5
1/8/2007,5:00,-29.5
1/8/2007,6:00,-30.6
1/8/2007,7:00,-31.4
1/8/2007,8:00,-32.2
1/8/2007,9:00,-31.3
1/8/2007,10:00,-31.4
1/8/2007,11:00,-30.8
1/8/2007,12:00,-32.0
1/8/2007,13:00,-32.9
1/8/2007,14:00,-36.0
1/8/2007,15:00,-36.9
1/8/2007,16:00,-37.4
1/8/2007,17:00,-38.6
1/8/2007,18:00,-39.1
1/8/2007,19:00,-39.9
1/8/2007,20:00,-40.1
1/8/2007,21:00,-41.1
1/8/2007,22:00,-40.3
1/8/2007,23:00,-41.4
1/9/2007,0:00,-41.8
1/9/2007,1:00,-42.6
1/9/2007,2:00,-42.0
1/9/2007,3:00,-42.9
1/9/2007,4:00,-42.8
1/9/2007,5:00,-42.8
1/9/2007,6:00,-43.0
1/9/2007,7:00,-43.2
1/9/2007,8:00,-43.2
1/9/2007,9:00,-42.7
1/9/2007,10:00,-42.4
1/9/2007,11:00,-41.7
1/9/2007,12:00,-40.5
1/9/2007,13:00,-39.5
1/9/2007,14:00,-38.6
1/9/2007,15:00,-38.2
1/9/2007,16:00,-38.0
1/9/2007,17:00,-36.9
1/9/2007,18:00,-37.2
1/9/2007,19:00,-35.6
1/9/2007,20:00,-34.1
1/9/2007,21:00,-33.5
1/9/2007,22:00,-33.3
1/9/2007,23:00,-31.9
1/10/2007,0:00,-30.3
1/10/2007,1:00,-29.2
1/10/2007,2:00,-28.1
1/10/2007,3:00,-27.0
1/10/2007,4:00,-25.5
1/10/2007,5:00,-24.9
1/10/2007,6:00,-23.9
1/10/2007,7:00,-23.3
1/10/2007,8:00,-22.2
1/10/2007,9:00,-21.3
1/10/2007,10:00,-21.3
1/10/2007,11:00,-21.4
1/10/2007,12:00,-21.6
1/10/2007,13:00,-20.7
1/10/2007,14:00,-19.8
1/10/2007,15:00,-19.0
1/10/2007,16:00,-18.9
1/10/2007,17:00,-18.5
1/10/2007,18:00,-18.1
1/10/2007,19:00,-18.0
1/10/2007,20:00,-17.0
1/10/2007,21:00,-17.2
1/10/2007,22:00,-16.8
1/10/2007,23:00,-18.0
1/11/2007,0:00,-19.0
1/11/2007,1:00,-18.6
1/11/2007,2:00,-17.9
1/11/2007,3:00,-17.1
1/11/2007,4:00,-17.1
1/11/2007,5:00,-16.7
1/11/2007,6:00,-17.2
1/11/2007,7:00,-17.5
1/11/2007,8:00,-18.0
1/11/2007,9:00,-18.0
1/11/2007,10:00,-18.5
1/11/2007,11:00,-19.0
1/11/2007,12:00,-19.8
1/11/2007,13:00,-19.6
1/11/2007,14:00,-19.3
1/11/2007,15:00,-20.1
1/11/2007,16:00,-21.1
1/11/2007,17:00,-22.1
1/11/2007,18:00,-22.9
1/11/2007,19:00,-23.6
1/11/2007,20:00,-22.9
1/11/2007,21:00,-23.8
1/11/2007,22:00,-24.6
1/11/2007,23:00,-24.8
1/12/2007,0:00,-25.4
1/12/2007,1:00,-25.6
1/12/2007,2:00,-26.0
1/12/2007,3:00,-26.5
1/12/2007,4:00,-27.0
1/12/2007,5:00,-28.0
1/12/2007,6:00,-28.8
1/12/2007,7:00,-29.2
1/12/2007,8:00,-30.0
1/12/2007,9:00,-30.4
1/12/2007,10:00,-30.4
1/12/2007,11:00,-30.4
1/12/2007,12:00,-30.3
1/12/2007,13:00,-30.3
1/12/2007,14:00,-30.4
1/12/2007,15:00,-30.6
1/12/2007,16:00,-30.6
1/12/2007,17:00,-30.8
1/12/2007,18:00,-30.8
1/12/2007,19:00,-30.8
1/12/2007,20:00,-31.0
1/12/2007,21:00,-30.9
1/12/2007,22:00,-31.3
1/12/2007,23:00,-31.2
1/13/2007,0:00,-31.6
1/13/2007,1:00,-30.6
1/13/2007,2:00,-30.3
1/13/2007,3:00,-30.4
1/13/2007,4:00,-30.0
1/13/2007,5:00,-30.3
1/13/2007,6:00,-29.5
1/13/2007,7:00,-29.6
1/13/2007,8:00,-29.6
1/13/2007,9:00,-29.1
1/13/2007,10:00,-29.0
1/13/2007,11:00,-29.1
1/13/2007,12:00,-29.5
1/13/2007,13:00,-28.7
1/13/2007,14:00,-27.6
1/13/2007,15:00,-26.8
1/13/2007,16:00,-26.4
1/13/2007,17:00,-26.3
1/13/2007,18:00,-26.5
1/13/2007,19:00,-26.9
1/13/2007,20:00,-26.6
1/13/2007,21:00,-26.3
1/13/2007,22:00,-25.9
1/13/2007,23:00,-25.9
1/14/2007,0:00,-26.8
1/14/2007,1:00,-27.1
1/14/2007,2:00,-26.8
1/14/2007,3:00,-25.5
1/14/2007,4:00,-24.9
1/14/2007,5:00,-24.8
1/14/2007,6:00,-24.7
1/14/2007,7:00,-24.6
1/14/2007,8:00,-24.5
1/14/2007,9:00,-24.4
1/14/2007,10:00,-24.7
1/14/2007,11:00,-24.9
1/14/2007,12:00,-24.9
1/14/2007,13:00,-24.7
1/14/2007,14:00,-24.7
1/14/2007,15:00,-25.2
1/14/2007,16:00,-25.3
1/14/2007,17:00,-25.8
1/14/2007,18:00,-25.7
1/14/2007,19:00,-25.6
1/14/2007,20:00,-25.5
1/14/2007,21:00,-25.5
1/14/2007,22:00,-25.5
1/14/2007,23:00,-25.5
1/15/2007,0:00,-25.6
1/15/2007,1:00,-25.5
1/15/2007,2:00,-25.6
1/15/2007,3:00,-25.6
1/15/2007,4:00,-25.4
1/15/2007,5:00,-25.6
1/15/2007,6:00,-25.6
1/15/2007,7:00,-25.8
1/15/2007,8:00,-26.0
1/15/2007,9:00,-26.8
1/15/2007,10:00,-27.4
1/15/2007,11:00,-28.1
1/15/2007,12:00,-28.1
1/15/2007,13:00,-27.5
1/15/2007,14:00,-27.2
1/15/2007,15:00,-27.2
1/15/2007,16:00,-26.8
1/15/2007,17:00,-26.9
1/15/2007,18:00,-26.6
1/15/2007,19:00,-26.2
1/15/2007,20:00,-26.0
1/15/2007,21:00,-25.7
1/15/2007,22:00,-25.7
1/15/2007,23:00,-25.5
1/16/2007,0:00,-25.4
1/16/2007,1:00,-25.2
1/16/2007,2:00,-25.1
1/16/2007,3:00,-25.2
1/16/2007,4:00,-25.5
1/16/2007,5:00,-26.2
1/16/2007,6:00,-26.4
1/16/2007,7:00,-26.9
1/16/2007,8:00,-27.4
1/16/2007,9:00,-28.3
1/16/2007,10:00,-29.3
1/16/2007,11:00,-30.9
1/16/2007,12:00,-33.4
1/16/2007,13:00,-33.2
1/16/2007,14:00,-34.2
1/16/2007,15:00,-35.1
1/16/2007,16:00,-34.8
1/16/2007,17:00,-36.6
1/16/2007,18:00,-37.9
1/16/2007,19:00,-38.8
1/16/2007,20:00,-37.4
1/16/2007,21:00,-38.1
1/16/2007,22:00,-38.1
1/16/2007,23:00,-39.1
1/17/2007,0:00,-38.4
1/17/2007,1:00,-39.0
1/17/2007,2:00,-40.3
1/17/2007,3:00,-40.0
1/17/2007,4:00,-39.9
1/17/2007,5:00,-39.8
1/17/2007,6:00,-38.1
1/17/2007,7:00,-38.0
1/17/2007,8:00,-38.6
1/17/2007,9:00,-38.7
1/17/2007,10:00,-39.0
1/17/2007,11:00,-38.9
1/17/2007,12:00,-38.6
1/17/2007,13:00,-36.8
1/17/2007,14:00,-35.9
1/17/2007,15:00,-33.4
1/17/2007,16:00,-32.2
1/17/2007,17:00,-32.3
1/17/2007,18:00,-32.0
1/17/2007,19:00,-31.1
1/17/2007,20:00,-30.9
1/17/2007,21:00,-31.5
1/17/2007,22:00,-32.7
1/17/2007,23:00,-31.6
1/18/2007,0:00,-29.3
1/18/2007,1:00,-28.6
1/18/2007,2:00,-28.4
1/18/2007,3:00,-27.6
1/18/2007,4:00,-28.7
1/18/2007,5:00,-27.5
1/18/2007,6:00,-26.4
1/18/2007,7:00,-26.0
1/18/2007,8:00,-25.8
1/18/2007,9:00,-25.1
1/18/2007,10:00,-24.9
1/18/2007,11:00,-23.9
1/18/2007,12:00,-23.0
1/18/2007,13:00,-23.5
1/18/2007,14:00,-25.3
1/18/2007,15:00,-26.0
1/18/2007,16:00,-26.7
1/18/2007,17:00,-28.2
1/18/2007,18:00,-28.5
1/18/2007,19:00,-26.6
1/18/2007,20:00,-26.4
1/18/2007,21:00,-25.1
1/18/2007,22:00,-24.3
1/18/2007,23:00,-24.1
1/19/2007,0:00,-23.5
1/19/2007,1:00,-23.1
1/19/2007,2:00,-21.5
1/19/2007,3:00,-22.5
1/19/2007,4:00,-22.5
1/19/2007,5:00,-22.5
1/19/2007,6:00,-23.0
1/19/2007,7:00,-22.9
1/19/2007,8:00,-22.7
1/19/2007,9:00,-22.4
1/19/2007,10:00,-22.1
1/19/2007,11:00,-21.8
1/19/2007,12:00,-21.7
1/19/2007,13:00,-21.6
1/19/2007,14:00,-21.3
1/19/2007,15:00,-21.1
1/19/2007,16:00,-20.6
1/19/2007,17:00,-19.7
1/19/2007,18:00,-19.8
1/19/2007,19:00,-20.1
1/19/2007,20:00,-21.6
1/19/2007,21:00,-21.6
1/19/2007,22:00,-20.7
1/19/2007,23:00,-20.1
1/20/2007,0:00,-19.9
1/20/2007,1:00,-19.4
1/20/2007,2:00,-19.4
1/20/2007,3:00,-19.7
1/20/2007,4:00,-20.0
1/20/2007,5:00,-19.9
1/20/2007,6:00,-20.2
1/20/2007,7:00,-20.4
1/20/2007,8:00,-20.6
1/20/2007,9:00,-21.2
1/20/2007,10:00,-21.9
1/20/2007,11:00,-22.6
1/20/2007,12:00,-22.7
1/20/2007,13:00,-22.5
1/20/2007,14:00,-22.8
1/20/2007,15:00,-22.5
1/20/2007,16:00,-22.7
1/20/2007,17:00,-22.7
1/20/2007,18:00,-22.6
1/20/2007,19:00,-22.7
1/20/2007,20:00,-23.0
1/20/2007,21:00,-23.9
1/20/2007,22:00,-26.0
1/20/2007,23:00,-25.9
1/21/2007,0:00,-27.8
1/21/2007,1:00,-30.1
1/21/2007,2:00,-29.9
1/21/2007,3:00,-29.5
1/21/2007,4:00,-30.2
1/21/2007,5:00,-28.6
1/21/2007,6:00,-30.2
1/21/2007,7:00,-31.6
1/21/2007,8:00,-31.5
1/21/2007,9:00,-29.9
1/21/2007,10:00,-27.9
1/21/2007,11:00,-26.9
1/21/2007,12:00,-26.7
1/21/2007,13:00,-26.2
1/21/2007,14:00,-25.5
1/21/2007,15:00,-25.4
1/21/2007,16:00,-25.4
1/21/2007,17:00,-25.5
1/21/2007,18:00,-25.2
1/21/2007,19:00,-25.0
1/21/2007,20:00,-25.1
1/21/2007,21:00,-25.1
1/21/2007,22:00,-25.1
1/21/2007,23:00,-24.8
1/22/2007,0:00,-24.9
1/22/2007,1:00,-24.8
1/22/2007,2:00,-25.0
1/22/2007,3:00,-24.8
1/22/2007,4:00,-24.7
1/22/2007,5:00,-24.7
1/22/2007,6:00,-25.0
1/22/2007,7:00,-25.1
1/22/2007,8:00,-24.9
1/22/2007,9:00,-24.3
1/22/2007,10:00,-24.3
1/22/2007,11:00,-24.4
1/22/2007,12:00,-25.3
1/22/2007,13:00,-24.9
1/22/2007,14:00,-24.9
1/22/2007,15:00,-24.5
1/22/2007,16:00,-24.9
1/22/2007,17:00,-24.8
1/22/2007,18:00,-25.0
1/22/2007,19:00,-25.6
1/22/2007,20:00,-26.0
1/22/2007,21:00,-26.2
1/22/2007,22:00,-26.0
1/22/2007,23:00,-26.0
1/23/2007,0:00,-25.5
1/23/2007,1:00,-25.3
1/23/2007,2:00,-26.0
1/23/2007,3:00,-26.2
1/23/2007,4:00,-25.9
1/23/2007,5:00,-26.5
1/23/2007,6:00,-26.9
1/23/2007,7:00,-27.0
1/23/2007,8:00,-27.5
1/23/2007,9:00,-28.3
1/23/2007,10:00,-28.9
1/23/2007,11:00,-30.8
1/23/2007,12:00,-31.9
1/23/2007,13:00,-33.1
1/23/2007,14:00,-33.5
1/23/2007,15:00,-33.7
1/23/2007,16:00,-34.3
1/23/2007,17:00,-33.8
1/23/2007,18:00,-32.9
1/23/2007,19:00,-33.9
1/23/2007,20:00,-32.6
1/23/2007,21:00,-31.6
1/23/2007,22:00,-31.2
1/23/2007,23:00,-31.9
1/24/2007,0:00,-34.1
1/24/2007,1:00,-32.8
1/24/2007,2:00,-31.5
1/24/2007,3:00,-30.5
1/24/2007,4:00,-29.7
1/24/2007,5:00,-29.4
1/24/2007,6:00,-28.8
1/24/2007,7:00,-28.3
1/24/2007,8:00,-27.9
1/24/2007,9:00,-27.6
1/24/2007,10:00,-27.4
1/24/2007,11:00,-27.1
1/24/2007,12:00,-26.9
1/24/2007,13:00,-26.2
1/24/2007,14:00,-25.5
1/24/2007,15:00,-25.3
1/24/2007,16:00,-24.5
1/24/2007,17:00,-24.5
1/24/2007,18:00,-24.7
1/24/2007,19:00,-24.5
1/24/2007,20:00,-24.4
1/24/2007,21:00,-24.4
1/24/2007,22:00,-24.4
1/24/2007,23:00,-24.4
1/25/2007,0:00,-26.7
1/25/2007,1:00,-29.3
1/25/2007,2:00,-27.1
1/25/2007,3:00,-27.5
1/25/2007,4:00,-28.3
1/25/2007,5:00,-27.9
1/25/2007,6:00,-28.8
1/25/2007,7:00,-31.5
1/25/2007,8:00,-32.2
1/25/2007,9:00,-34.6
1/25/2007,10:00,-36.4
1/25/2007,11:00,-36.8
1/25/2007,12:00,-38.1
1/25/2007,13:00,-37.9
1/25/2007,14:00,-37.7
1/25/2007,15:00,-37.3
1/25/2007,16:00,-38.4
1/25/2007,17:00,-39.3
1/25/2007,18:00,-39.6
1/25/2007,19:00,-40.7
1/25/2007,20:00,-40.9
1/25/2007,21:00,-40.2
1/25/2007,22:00,-40.9
1/25/2007,23:00,-38.7
1/26/2007,0:00,-36.2
1/26/2007,1:00,-34.6
1/26/2007,2:00,-34.4
1/26/2007,3:00,-34.5
1/26/2007,4:00,-33.7
1/26/2007,5:00,-32.3
1/26/2007,6:00,-31.3
1/26/2007,7:00,-29.8
1/26/2007,8:00,-29.3
1/26/2007,9:00,-28.4
1/26/2007,10:00,-27.7
1/26/2007,11:00,-27.1
1/26/2007,12:00,-26.3
1/26/2007,13:00,-25.7
1/26/2007,14:00,-25.7
1/26/2007,15:00,-25.6
1/26/2007,16:00,-25.5
1/26/2007,17:00,-25.3
1/26/2007,18:00,-25.5
1/26/2007,19:00,-25.3
1/26/2007,20:00,-25.1
1/26/2007,21:00,-24.8
1/26/2007,22:00,-25.6
1/26/2007,23:00,-27.5
1/27/2007,0:00,-27.9
1/27/2007,1:00,-28.1
1/27/2007,2:00,-27.6
1/27/2007,3:00,-26.1
1/27/2007,4:00,-25.8
1/27/2007,5:00,-26.2
1/27/2007,6:00,-27.2
1/27/2007,7:00,-28.0
1/27/2007,8:00,-26.2
1/27/2007,9:00,-24.8
1/27/2007,10:00,-24.3
1/27/2007,11:00,-24.2
1/27/2007,12:00,-24.3
1/27/2007,13:00,-24.0
1/27/2007,14:00,-23.5
1/27/2007,15:00,-22.8
1/27/2007,16:00,-22.5
1/27/2007,17:00,-21.8
1/27/2007,18:00,-21.3
1/27/2007,19:00,-20.9
1/27/2007,20:00,-21.5
1/27/2007,21:00,-23.0
1/27/2007,22:00,-23.6
1/27/2007,23:00,-23.9
1/28/2007,0:00,-22.9
1/28/2007,1:00,-21.8
1/28/2007,2:00,-22.6
1/28/2007,3:00,-23.2
1/28/2007,4:00,-23.2
1/28/2007,5:00,-23.1
1/28/2007,6:00,-23.0
1/28/2007,7:00,-22.9
1/28/2007,8:00,-23.2
1/28/2007,9:00,-21.4
1/28/2007,10:00,-21.1
1/28/2007,11:00,-20.5
1/28/2007,12:00,-20.0
1/28/2007,13:00,-20.4
1/28/2007,14:00,-20.3
1/28/2007,15:00,-19.8
1/28/2007,16:00,-19.5
1/28/2007,17:00,-19.5
1/28/2007,18:00,-20.0
1/28/2007,19:00,-19.5
1/28/2007,20:00,-18.8
1/28/2007,21:00,-18.5
1/28/2007,22:00,-18.3
1/28/2007,23:00,-17.9
1/29/2007,0:00,-17.5
1/29/2007,1:00,-17.3
1/29/2007,2:00,-17.8
1/29/2007,3:00,-17.1
1/29/2007,4:00,-16.5
1/29/2007,5:00,-16.0
1/29/2007,6:00,-15.1
1/29/2007,7:00,-14.6
1/29/2007,8:00,-14.0
1/29/2007,9:00,-13.5
1/29/2007,10:00,-13.3
1/29/2007,11:00,-14.8
1/29/2007,12:00,-16.4
1/29/2007,13:00,-17.5
1/29/2007,14:00,-18.3
1/29/2007,15:00,-18.4
1/29/2007,16:00,-19.5
1/29/2007,17:00,-17.8
1/29/2007,18:00,-19.1
1/29/2007,19:00,-16.8
1/29/2007,20:00,-16.2
1/29/2007,21:00,-16.4
1/29/2007,22:00,-16.4
1/29/2007,23:00,-17.2
1/30/2007,0:00,-17.7
1/30/2007,1:00,-17.4
1/30/2007,2:00,-18.0
1/30/2007,3:00,-17.9
1/30/2007,4:00,-17.9
1/30/2007,5:00,-17.3
1/30/2007,6:00,-17.0
1/30/2007,7:00,-16.5
1/30/2007,8:00,-16.0
1/30/2007,9:00,-15.7
1/30/2007,10:00,-15.2
1/30/2007,11:00,-15.1
1/30/2007,12:00,-15.1
1/30/2007,13:00,-15.2
1/30/2007,14:00,-15.2
1/30/2007,15:00,-15.2
1/30/2007,16:00,-15.2
1/30/2007,17:00,-15.4
1/30/2007,18:00,-15.5
1/30/2007,19:00,-16.3
1/30/2007,20:00,-17.0
1/30/2007,21:00,-16.7
1/30/2007,22:00,-16.9
1/30/2007,23:00,-17.3
1/31/2007,0:00,-17.3
1/31/2007,1:00,-17.5
1/31/2007,2:00,-17.6
1/31/2007,3:00,-17.4
1/31/2007,4:00,-17.5
1/31/2007,5:00,-17.4
1/31/2007,6:00,-17.1
1/31/2007,7:00,-16.7
1/31/2007,8:00,-16.7
1/31/2007,9:00,-16.7
1/31/2007,10:00,-16.8
1/31/2007,11:00,-16.6
1/31/2007,12:00,-16.1
1/31/2007,13:00,-15.9
1/31/2007,14:00,-15.4
1/31/2007,15:00,-14.8
1/31/2007,16:00,-14.7
1/31/2007,17:00,-14.2
1/31/2007,18:00,-14.4
1/31/2007,19:00,-14.8
1/31/2007,20:00,-15.4
1/31/2007,21:00,-15.3
1/31/2007,22:00,-15.0
1/31/2007,23:00,-14.5
2/1/2007,0:00,-15.1
2/1/2007,1:00,-12.9
2/1/2007,2:00,-12.4
2/1/2007,3:00,-14.0
2/1/2007,4:00,-14.6
2/1/2007,5:00,-13.9
2/1/2007,6:00,-13.3
2/1/2007,7:00,-14.1
2/1/2007,8:00,-15.2
2/1/2007,9:00,-15.4
2/1/2007,10:00,-16.0
2/1/2007,11:00,-15.5
2/1/2007,12:00,-14.4
2/1/2007,13:00,-13.8
2/1/2007,14:00,-12.3
2/1/2007,15:00,-10.3
2/1/2007,16:00,-9.0
2/1/2007,17:00,-9.3
2/1/2007,18:00,-9.0
2/1/2007,19:00,-9.5
2/1/2007,20:00,-10.1
2/1/2007,21:00,-10.1
2/1/2007,22:00,-10.0
2/1/2007,23:00,-10.4
2/2/2007,0:00,-10.7
2/2/2007,1:00,-12.2
2/2/2007,2:00,-14.2
2/2/2007,3:00,-13.9
2/2/2007,4:00,-13.9
2/2/2007,5:00,-15.1
2/2/2007,6:00,-16.0
2/2/2007,7:00,-16.6
2/2/2007,8:00,-16.8
2/2/2007,9:00,-17.7
2/2/2007,10:00,-17.3
2/2/2007,11:00,-17.1
2/2/2007,12:00,-17.5
2/2/2007,13:00,-17.7
2/2/2007,14:00,-16.8
2/2/2007,15:00,-17.0
2/2/2007,16:00,-15.4
2/2/2007,17:00,-14.6
2/2/2007,18:00,-14.1
2/2/2007,19:00,-13.5
2/2/2007,20:00,-13.1
2/2/2007,21:00,-12.8
2/2/2007,22:00,-13.0
2/2/2007,23:00,-11.7
2/3/2007,0:00,-10.4
2/3/2007,1:00,-9.5
2/3/2007,2:00,-8.7
2/3/2007,3:00,-8.6
2/3/2007,4:00,-8.9
2/3/2007,5:00,-8.5
2/3/2007,6:00,-8.7
2/3/2007,7:00,-11.6
2/3/2007,8:00,-12.5
2/3/2007,9:00,-12.1
2/3/2007,10:00,-14.6
2/3/2007,11:00,-15.0
2/3/2007,12:00,-13.5
2/3/2007,13:00,-13.4
2/3/2007,14:00,-14.0
2/3/2007,15:00,-13.9
2/3/2007,16:00,-16.7
2/3/2007,17:00,-16.9
2/3/2007,18:00,-17.8
2/3/2007,19:00,-17.4
2/3/2007,20:00,-15.3
2/3/2007,21:00,-15.0
2/3/2007,22:00,-14.0
2/3/2007,23:00,-14.3
2/4/2007,0:00,-14.3
2/4/2007,1:00,-14.7
2/4/2007,2:00,-16.3
2/4/2007,3:00,-16.3
2/4/2007,4:00,-16.9
2/4/2007,5:00,-16.3
2/4/2007,6:00,-16.1
2/4/2007,7:00,-16.3
2/4/2007,8:00,-17.3
2/4/2007,9:00,-16.5
2/4/2007,10:00,-17.1
2/4/2007,11:00,-17.7
2/4/2007,12:00,-17.5
2/4/2007,13:00,-16.7
2/4/2007,14:00,-16.6
2/4/2007,15:00,-16.7
2/4/2007,16:00,-16.4
2/4/2007,17:00,-15.1
2/4/2007,18:00,-13.6
2/4/2007,19:00,-12.7
2/4/2007,20:00,-11.9
2/4/2007,21:00,-11.1
2/4/2007,22:00,-10.6
2/4/2007,23:00,-10.8
2/5/2007,0:00,-12.6
2/5/2007,1:00,-13.8
2/5/2007,2:00,-13.6
2/5/2007,3:00,-13.2
2/5/2007,4:00,-12.8
2/5/2007,5:00,-11.4
2/5/2007,6:00,-10.7
2/5/2007,7:00,-10.4
2/5/2007,8:00,-9.8
2/5/2007,9:00,-9.7
2/5/2007,10:00,-9.5
2/5/2007,11:00,-9.2
2/5/2007,12:00,-8.7
2/5/2007,13:00,-8.6
2/5/2007,14:00,-7.9
2/5/2007,15:00,-7.1
2/5/2007,16:00,-7.9
2/5/2007,17:00,-7.6
2/5/2007,18:00,-7.8
2/5/2007,19:00,-7.7
2/5/2007,20:00,-7.2
2/5/2007,21:00,-7.4
2/5/2007,22:00,-8.7
2/5/2007,23:00,-9.5
2/6/2007,0:00,-9.7
2/6/2007,1:00,-10.0
2/6/2007,2:00,-10.0
2/6/2007,3:00,-9.6
2/6/2007,4:00,-9.7
2/6/2007,5:00,-11.2
2/6/2007,6:00,-11.9
2/6/2007,7:00,-12.6
2/6/2007,8:00,-13.8
2/6/2007,9:00,-14.4
2/6/2007,10:00,-15.1
2/6/2007,11:00,-16.5
2/6/2007,12:00,-17.1
2/6/2007,13:00,-16.9
2/6/2007,14:00,-16.9
2/6/2007,15:00,-16.4
2/6/2007,16:00,-16.6
2/6/2007,17:00,-17.1
2/6/2007,18:00,-18.1
2/6/2007,19:00,-18.2
2/6/2007,20:00,-19.5
2/6/2007,21:00,-20.8
2/6/2007,22:00,-20.9
2/6/2007,23:00,-21.0
2/7/2007,0:00,-21.5
2/7/2007,1:00,-20.6
2/7/2007,2:00,-21.5
2/7/2007,3:00,-22.2
2/7/2007,4:00,-23.9
2/7/2007,5:00,-24.2
2/7/2007,6:00,-24.6
2/7/2007,7:00,-25.8
2/7/2007,8:00,-24.4
2/7/2007,9:00,-25.3
2/7/2007,10:00,-27.4
2/7/2007,11:00,-27.0
2/7/2007,12:00,-26.0
2/7/2007,13:00,-26.3
2/7/2007,14:00,-26.4
2/7/2007,15:00,-25.0
2/7/2007,16:00,-27.0
2/7/2007,17:00,-27.3
2/7/2007,18:00,-29.2
2/7/2007,19:00,-30.2
2/7/2007,20:00,-30.3
2/7/2007,21:00,-30.8
2/7/2007,22:00,-31.7
2/7/2007,23:00,-31.2
2/8/2007,0:00,-31.5
2/8/2007,1:00,-32.2
2/8/2007,2:00,-31.4
2/8/2007,3:00,-32.4
2/8/2007,4:00,-31.8
2/8/2007,5:00,-27.9
2/8/2007,6:00,-19.8
2/8/2007,7:00,-25.6
2/8/2007,8:00,-27.2
2/8/2007,9:00,-14.6
2/8/2007,10:00,-14.9
2/8/2007,11:00,-11.5
2/8/2007,12:00,-11.8
2/8/2007,13:00,-19.8
2/8/2007,14:00,-13.4
2/8/2007,15:00,-20.7
2/8/2007,16:00,-16.9
2/8/2007,17:00,-16.5
2/8/2007,18:00,-15.1
2/8/2007,19:00,-14.8
2/8/2007,20:00,-25.5
2/8/2007,21:00,-27.1
2/8/2007,22:00,-28.2
2/8/2007,23:00,-28.9
2/9/2007,0:00,-29.8
2/9/2007,1:00,-29.4
2/9/2007,2:00,-30.4
2/9/2007,3:00,-30.6
2/9/2007,4:00,-29.6
2/9/2007,5:00,-29.4
2/9/2007,6:00,-29.5
2/9/2007,7:00,-28.7
2/9/2007,8:00,-29.7
2/9/2007,9:00,-29.7
2/9/2007,10:00,-28.3
2/9/2007,11:00,-28.6
2/9/2007,12:00,-28.9
2/9/2007,13:00,-28.7
2/9/2007,14:00,-28.4
2/9/2007,15:00,-28.2
2/9/2007,16:00,-26.0
2/9/2007,17:00,-26.3
2/9/2007,18:00,-27.4
2/9/2007,19:00,-27.9
2/9/2007,20:00,-28.1
2/9/2007,21:00,-28.1
2/9/2007,22:00,-29.3
2/9/2007,23:00,-28.3
2/10/2007,0:00,-28.5
2/10/2007,1:00,-28.3
2/10/2007,2:00,-29.6
2/10/2007,3:00,-29.1
2/10/2007,4:00,-30.3
2/10/2007,5:00,-30.4
2/10/2007,6:00,-29.7
2/10/2007,7:00,-30.1
2/10/2007,8:00,-30.9
2/10/2007,9:00,-29.5
2/10/2007,10:00,-28.8
2/10/2007,11:00,-30.7
2/10/2007,12:00,-30.7
2/10/2007,13:00,-29.8
2/10/2007,14:00,-29.5
2/10/2007,15:00,-29.1
2/10/2007,16:00,-28.4
2/10/2007,17:00,-28.7
2/10/2007,18:00,-30.0
2/10/2007,19:00,-31.6
2/10/2007,20:00,-32.7
2/10/2007,21:00,-33.4
2/10/2007,22:00,-32.8
2/10/2007,23:00,-33.9
2/11/2007,0:00,-33.7
2/11/2007,1:00,-31.9
2/11/2007,2:00,-31.4
2/11/2007,3:00,-30.8
2/11/2007,4:00,-30.5
2/11/2007,5:00,-30.5
2/11/2007,6:00,-30.2
2/11/2007,7:00,-30.1
2/11/2007,8:00,-29.8
2/11/2007,9:00,-29.6
2/11/2007,10:00,-29.4
2/11/2007,11:00,-28.4
2/11/2007,12:00,-27.8
2/11/2007,13:00,-26.8
2/11/2007,14:00,-27.2
2/11/2007,15:00,-26.9
2/11/2007,16:00,-26.7
2/11/2007,17:00,-26.6
2/11/2007,18:00,-27.2
2/11/2007,19:00,-27.7
2/11/2007,20:00,-28.2
2/11/2007,21:00,-28.8
2/11/2007,22:00,-30.2
2/11/2007,23:00,-30.9
2/12/2007,0:00,-31.4
2/12/2007,1:00,-32.4
2/12/2007,2:00,-32.8
2/12/2007,3:00,-34.0
2/12/2007,4:00,-34.0
2/12/2007,5:00,-34.4
2/12/2007,6:00,-34.7
2/12/2007,7:00,-34.6
2/12/2007,8:00,-35.3
2/12/2007,9:00,-35.4
2/12/2007,10:00,-35.1
2/12/2007,11:00,-34.9
2/12/2007,12:00,-34.6
2/12/2007,13:00,-33.9
2/12/2007,14:00,-32.9
2/12/2007,15:00,-32.1
2/12/2007,16:00,-30.7
2/12/2007,17:00,-31.9
2/12/2007,18:00,-34.0
2/12/2007,19:00,-33.6
2/12/2007,20:00,-33.6
2/12/2007,21:00,-35.0
2/12/2007,22:00,-35.6
2/12/2007,23:00,-36.3
2/13/2007,0:00,-36.6
2/13/2007,1:00,-37.2
2/13/2007,2:00,-36.9
2/13/2007,3:00,-37.3
2/13/2007,4:00,-36.6
2/13/2007,5:00,-36.9
2/13/2007,6:00,-37.7
2/13/2007,7:00,-34.2
2/13/2007,8:00,-33.8
2/13/2007,9:00,-30.8
2/13/2007,10:00,-31.0
2/13/2007,11:00,-32.3
2/13/2007,12:00,-31.6
2/13/2007,13:00,-31.5
2/13/2007,14:00,-31.9
2/13/2007,15:00,-31.7
2/13/2007,16:00,-30.3
2/13/2007,17:00,-30.5
2/13/2007,18:00,-33.9
2/13/2007,19:00,-35.2
2/13/2007,20:00,-35.0
2/13/2007,21:00,-36.7
2/13/2007,22:00,-37.4
2/13/2007,23:00,-37.0
2/14/2007,0:00,-37.9
2/14/2007,1:00,-38.1
2/14/2007,2:00,-37.9
2/14/2007,3:00,-36.1
2/14/2007,4:00,-36.3
2/14/2007,5:00,-36.1
2/14/2007,6:00,-36.2
2/14/2007,7:00,-36.1
2/14/2007,8:00,-36.3
2/14/2007,9:00,-36.2
2/14/2007,10:00,-36.6
2/14/2007,11:00,-36.6
2/14/2007,12:00,-34.5
2/14/2007,13:00,-34.6
2/14/2007,14:00,-33.7
2/14/2007,15:00,-33.0
2/14/2007,16:00,-32.9
2/14/2007,17:00,-32.5
2/14/2007,18:00,-35.1
2/14/2007,19:00,-35.9
2/14/2007,20:00,-36.0
2/14/2007,21:00,-37.0
2/14/2007,22:00,-37.2
2/14/2007,23:00,-37.3